Upington, South Africa

3:13 PM SAST on September 26, 2016 (GMT +0200)
Upington

Weather History for FAUP - November, 2012

Change the Weather History Date:

Sunday, November 25, 2012

  Actual Average Record
Temperature  
Mean Temperature 61 °F -  
Max Temperature 80 °F 90 °F 100 °F (2008)
Min Temperature 42 °F 60 °F 42 °F (2012)
Degree Days  
Heating Degree Days 4    
Growing Degree Days 11 (Base 50)    
Moisture  
Dew Point 22 °F    
Average Humidity 28    
Maximum Humidity 66    
Minimum Humidity 4    
Precipitation  
Precipitation 0.00 in - - ()
Sea Level Pressure  
Sea Level Pressure 30.15 in    
Wind  
Wind Speed 8 mph ()    
Max Wind Speed 16 mph    
Max Gust Speed -    
Averages and records for this station are not official NWS values.
T = Trace of Precipitation, MM = Missing Value Source: Averaged Metar Reports

Daily Weather History Graph

Daily Weather History Graph

Search for Another Location

Airport or City:

Trip Planner

Search our weather history database for the weather conditions in past years. The results will help you decide how hot, cold, wet, or windy it might be!

Date:

Astronomy

Nov. 25, 2012 Rise Set
Actual Time 5:30 AM SAST 7:14 PM SAST
Civil Twilight 5:04 AM SAST 7:40 PM SAST
Nautical Twilight 4:32 AM SAST 8:11 PM SAST
Astronomical Twilight 3:59 AM SAST 8:44 PM SAST
Moon 4:40 PM SAST (11/25) 3:17 AM SAST (11/25)
Length of Visible Light 14h 35m
Length of Day
13h 43m
Waxing Gibbous, 91% of the Moon is Illuminated
Nov 25
Waxing Gibbous
Nov 28
Full
Dec 6
Last Quarter
Dec 13
New
Dec 20
First Quarter

Hourly Weather History & Observations

Time (SAST) Temp. Windchill Dew Point Humidity Pressure Visibility Wind Dir Wind Speed Gust Speed Precip Events Conditions
12:00 AM 53.6 °F - 33.8 °F 47% 30.09 in - South 16.1 mph - N/A   Unknown
1:00 AM 50.0 °F - 32.0 °F 50% 30.12 in - South 15.0 mph - N/A   Clear
2:00 AM 50 °F - 32 °F 38%  in 25 mi South 12.7 mph - -   Clear
2:00 AM 48.2 °F - 32.0 °F 54% 30.12 in - South 11.5 mph - N/A   Clear
3:00 AM 46.4 °F 41.1 °F 32.0 °F 57% 30.12 in - South 11.5 mph - N/A   Clear
4:00 AM 44.6 °F 40.2 °F 32.0 °F 61% 30.12 in - South 8.1 mph - N/A   Clear
5:00 AM 43 °F - 32 °F 53%  in 25 mi South 6.9 mph - -  
5:00 AM 42.8 °F 39.3 °F 32.0 °F 66% 30.12 in - South 5.8 mph - N/A   Clear
6:00 AM 42.8 °F 40.1 °F 32.0 °F 66% 30.18 in - SSW 4.6 mph - N/A   Unknown
6:35 AM 46.4 °F 43.5 °F 32.0 °F 57% 30.18 in - South 5.8 mph - N/A   Clear
7:00 AM 48.2 °F - 32.0 °F 54% 30.18 in - South 6.9 mph - N/A   Clear
8:00 AM 53 °F - 31 °F 30%  in 25 mi SSE 6.9 mph - -  
8:00 AM 51.8 °F - 32.0 °F 47% 30.21 in - SSE 6.9 mph - N/A   Clear
9:00 AM 55.4 °F - 28.4 °F 36% 30.21 in - South 6.9 mph - N/A   Clear
10:00 AM 59.0 °F - 24.8 °F 27% 30.24 in - South 6.9 mph - N/A   Clear
10:22 AM 62.6 °F - 24.8 °F 24% 30.21 in - South 6.9 mph - N/A   Clear
11:00 AM 63 °F - 22 °F 11%  in 25 mi South 6.9 mph - -  
11:00 AM 62.6 °F - 23.0 °F 22% 30.21 in - South 5.8 mph - N/A   Clear
11:28 AM 66.2 °F - 19.4 °F 17% 30.21 in - South 4.6 mph - N/A   Clear
12:00 PM 68.0 °F - 17.6 °F 15% 30.21 in - South 3.5 mph - N/A   Clear
12:45 PM 71.6 °F - 17.6 °F 13% 30.18 in - SE 4.6 mph - N/A   Clear
1:00 PM 69.8 °F - 15.8 °F 13% 30.18 in - South 8.1 mph - N/A   Clear
2:00 PM 74 °F - 15 °F 4%  in 25 mi SSE 6.9 mph - -  
2:00 PM 73.4 °F - 15.8 °F 11% 30.15 in - SSE 5.8 mph - N/A   Clear
3:00 PM 75.2 °F - 17.6 °F 11% 30.12 in - SW 4.6 mph - N/A   Clear
4:00 PM 78.8 °F - 14.0 °F 9% 30.09 in - South 4.6 mph - N/A   Clear
5:00 PM 79 °F - 10 °F 4%  in 25 mi SW 2.3 mph - -  
5:00 PM 78.8 °F - 10.4 °F 7% 30.09 in - SW 1.2 mph - N/A   Clear
6:00 PM 77.0 °F - 14.0 °F 9% 30.09 in - South 5.8 mph - N/A   Clear
7:00 PM 75.2 °F - 14.0 °F 10% 30.09 in - SSW 4.6 mph - N/A   Clear
8:00 PM 67 °F - 15 °F 6%  in 25 mi SW 6.9 mph - -  
8:00 PM 66.2 °F - 15.8 °F 14% 30.12 in - SW 6.9 mph - N/A   Clear
9:00 PM 64.4 °F - 12.2 °F 13% 30.15 in - SW 6.9 mph - N/A   Unknown
10:00 PM 60.8 °F - 12.2 °F 15% 30.15 in - SW 5.8 mph - N/A   Unknown
11:00 PM 59 °F - 10 °F 6%  in - West 5.8 mph - -  
11:00 PM 57.2 °F - 10.4 °F 16% 30.15 in - West 4.6 mph - N/A   Unknown